Date String (YYYY-MM-DD hh:mm:ss) UTC,Instrument flags,Ambient pressure (hPa),Sample flow (lpm),Bypass flow (lpm),Sample temperature (°C),Ambient temperature (°C),ASC tube jacket temperature (°C),LED temperature (°C),Box temperature (°C),Sample RH (%),Span deviation,Mass concentration (μg/m³),Mass concentration (μg/m³),Mass concentration (μg/m³)
DateTimeUTC,F1_M11,P_M11,Q1_M11,Q2_M11,T1_M11,T2_M11,T3_M11,T4_M11,T5_M11,U1_M11,ZSPAN_M11,X0_M11,X2_M11,X1_M11
2022-11-19 14:00:00,,0831.1,5.00,0.00,22.2,20.9,00.0,31.1,24.0,06.9,0000.0,0003.72,0002.87,0002.53
2022-11-19 14:01:00,,0831.0,5.01,0.00,22.2,20.9,00.0,31.1,24.0,06.8,0000.0,0003.91,0002.94,0002.54
2022-11-19 14:02:00,,0831.0,5.00,0.00,22.1,20.8,00.0,31.1,23.9,06.8,0000.0,0003.97,0002.97,0002.55
2022-11-19 14:03:00,,0831.0,5.00,0.00,22.1,20.6,00.0,31.1,23.9,06.9,0000.0,0004.01,0003.00,0002.57
2022-11-19 14:04:00,,0831.0,4.99,0.00,22.1,20.6,00.0,31.1,23.9,07.0,0000.0,0004.00,0002.99,0002.57
2022-11-19 14:05:00,,0831.1,5.02,0.00,22.2,21.5,00.0,31.0,24.0,07.1,0000.0,0004.12,0003.05,0002.59
2022-11-19 14:06:00,,0831.1,4.99,0.00,22.3,22.4,00.0,31.0,24.2,07.1,0000.0,0004.14,0003.06,0002.59
2022-11-19 14:07:00,,0831.1,4.99,0.00,22.3,22.2,00.0,31.1,24.3,07.3,0000.0,0003.97,0002.99,0002.57
2022-11-19 14:08:00,,0831.1,5.01,0.00,22.3,21.7,00.0,31.1,24.2,07.4,0000.0,0003.81,0002.89,0002.50
2022-11-19 14:09:00,,0831.1,5.01,0.00,22.3,21.3,00.0,31.1,24.1,07.6,0000.0,0003.64,0002.74,0002.40
2022-11-19 14:10:00,,0831.1,4.99,0.00,22.2,21.0,00.0,31.1,24.0,08.0,0000.0,0003.38,0002.60,0002.27
2022-11-19 14:11:00,,0831.1,4.99,0.00,22.2,20.8,00.0,31.1,24.0,08.1,0000.0,0003.12,0002.44,0002.13
2022-11-19 14:12:00,,0831.2,5.01,0.00,22.2,20.6,00.0,31.1,23.9,08.0,0000.0,0002.83,0002.26,0002.01
2022-11-19 14:13:00,,0831.2,5.00,0.00,22.1,20.4,00.0,31.1,23.8,08.1,0000.0,0002.62,0002.10,0001.89
2022-11-19 14:14:00,,0831.2,4.99,0.00,22.1,20.3,00.0,31.1,23.8,08.4,0000.0,0002.47,0001.94,0001.74
2022-11-19 14:15:00,,0831.3,5.00,0.00,22.0,20.3,00.0,31.1,23.7,08.6,0000.0,0002.31,0001.80,0001.62
2022-11-19 14:16:00,,0831.5,5.02,0.00,22.1,21.1,00.0,31.0,23.8,08.6,0000.0,0002.03,0001.63,0001.49
2022-11-19 14:17:00,,0831.5,4.98,0.00,22.2,22.1,00.0,31.0,24.0,08.6,0000.0,0001.80,0001.46,0001.37
2022-11-19 14:18:00,,0831.6,4.99,0.00,22.2,22.1,00.0,31.0,24.1,08.6,0000.0,0001.72,0001.36,0001.27
2022-11-19 14:19:00,,0831.6,5.01,0.00,22.2,21.7,00.0,31.1,24.1,08.5,0000.0,0001.64,0001.28,0001.19
2022-11-19 14:20:00,,0831.5,4.99,0.00,22.2,21.4,00.0,31.1,24.1,08.4,0000.0,0001.53,0001.22,0001.14
2022-11-19 14:21:00,,0831.5,4.99,0.00,22.2,21.2,00.0,31.1,24.0,08.4,0000.0,0001.44,0001.20,0001.13
2022-11-19 14:22:00,,0831.5,5.00,0.00,22.2,21.0,00.0,31.1,23.9,08.4,0000.0,0001.45,0001.21,0001.14
2022-11-19 14:23:00,,0831.5,5.00,0.00,22.1,20.9,00.0,31.1,23.9,08.3,0000.0,0001.48,0001.22,0001.13
2022-11-19 14:24:00,,0831.5,5.00,0.00,22.1,20.7,00.0,31.1,23.8,08.4,0000.0,0001.52,0001.23,0001.13
2022-11-19 14:25:00,,0831.5,5.00,0.00,22.1,20.6,00.0,31.1,23.8,08.4,0000.0,0001.49,0001.21,0001.11
2022-11-19 14:26:00,,0831.5,5.01,0.00,22.0,20.5,00.0,31.1,23.7,08.2,0000.0,0001.51,0001.21,0001.11
2022-11-19 14:27:00,,0831.6,5.01,0.00,22.0,20.7,00.0,31.0,23.7,08.2,0000.0,0001.55,0001.22,0001.10
2022-11-19 14:28:00,,0831.6,4.99,0.00,22.1,21.7,00.0,31.0,23.9,08.1,0000.0,0001.64,0001.25,0001.10
2022-11-19 14:29:00,,0831.7,5.01,0.00,22.2,22.6,00.0,31.0,24.2,07.9,0000.0,0001.69,0001.28,0001.11
2022-11-19 14:30:00,,0831.7,5.00,0.00,22.3,22.4,00.0,31.0,24.2,07.7,0000.0,0001.75,0001.32,0001.14
2022-11-19 14:31:00,,0831.7,4.99,0.00,22.3,22.0,00.0,31.1,24.2,07.6,0000.0,0001.82,0001.37,0001.17
2022-11-19 14:32:00,,0831.7,5.00,0.00,22.3,21.6,00.0,31.1,24.1,07.5,0000.0,0002.42,0001.41,0001.21
2022-11-19 14:33:00,,0831.7,5.01,0.00,22.2,21.4,00.0,31.1,24.1,07.5,0000.0,0003.09,0001.46,0001.25
2022-11-19 14:34:00,,0831.7,5.01,0.00,22.2,21.2,00.0,31.1,24.0,07.5,0000.0,0003.15,0001.51,0001.30
2022-11-19 14:35:00,,0831.7,4.98,0.00,22.2,21.0,00.0,31.1,24.0,07.6,0000.0,0003.17,0001.54,0001.33
2022-11-19 14:36:00,,0831.7,5.00,0.00,22.2,20.9,00.0,31.1,23.9,07.6,0000.0,0003.21,0001.59,0001.38
2022-11-19 14:37:00,,0831.7,5.01,0.00,22.2,20.7,00.0,31.1,23.9,07.6,0000.0,0003.16,0001.59,0001.40
2022-11-19 14:38:00,,0831.7,5.01,0.00,22.1,20.7,00.0,31.1,23.9,07.6,0000.0,0003.09,0001.58,0001.41
2022-11-19 14:39:00,,0831.8,4.99,0.00,22.1,20.6,00.0,31.1,23.8,07.5,0000.0,0003.05,0001.59,0001.44
2022-11-19 14:40:00,,0832.0,5.00,0.00,22.1,20.5,00.0,31.1,23.8,07.3,0000.0,0003.11,0001.64,0001.49
2022-11-19 14:41:00,,0832.0,5.00,0.00,22.0,20.5,00.0,31.1,23.8,07.3,0000.0,0003.12,0001.66,0001.52
2022-11-19 14:42:00,,0832.0,5.01,0.00,22.1,21.4,00.0,31.0,23.9,07.4,0000.0,0003.09,0001.65,0001.52
2022-11-19 14:43:00,,0832.0,4.99,0.00,22.2,22.6,00.0,31.0,24.2,07.4,0000.0,0002.62,0001.64,0001.53
2022-11-19 14:44:00,,0832.1,5.00,0.00,22.3,22.8,00.0,31.1,24.4,07.3,0000.0,0001.91,0001.65,0001.54
2022-11-19 14:45:00,,0832.1,4.99,0.00,22.4,22.3,00.0,31.1,24.3,07.2,0000.0,0002.27,0001.67,0001.54
2022-11-19 14:46:00,,0832.1,5.00,0.00,22.3,21.9,00.0,31.2,24.2,07.2,0000.0,0002.53,0001.66,0001.54
2022-11-19 14:47:00,,0832.1,5.00,0.00,22.3,21.6,00.0,31.2,24.2,07.3,0000.0,0002.55,0001.67,0001.55
2022-11-19 14:48:00,,0832.1,5.01,0.00,22.3,21.3,00.0,31.2,24.1,07.2,0000.0,0002.66,0001.73,0001.57
2022-11-19 14:49:00,,0832.1,5.01,0.00,22.3,21.2,00.0,31.2,24.1,07.2,0000.0,0002.69,0001.75,0001.59
2022-11-19 14:50:00,,0832.1,5.00,0.00,22.2,21.0,00.0,31.2,24.0,07.3,0000.0,0002.65,0001.74,0001.60
2022-11-19 14:51:00,,0832.1,5.00,0.00,22.2,20.9,00.0,31.2,24.0,07.3,0000.0,0002.67,0001.74,0001.60
2022-11-19 14:52:00,,0832.1,4.99,0.00,22.2,20.8,00.0,31.2,23.9,07.4,0000.0,0002.78,0001.77,0001.59
2022-11-19 14:53:00,,0832.1,5.00,0.00,22.2,20.7,00.0,31.2,23.9,07.4,0000.0,0002.98,0001.79,0001.59
2022-11-19 14:54:00,,0832.1,5.00,0.00,22.1,20.7,00.0,31.1,23.8,07.4,0000.0,0003.04,0001.81,0001.58
2022-11-19 14:55:00,,0832.1,4.99,0.00,22.1,20.6,00.0,31.1,23.8,07.4,0000.0,0003.22,0001.85,0001.58
2022-11-19 14:56:00,,0832.1,5.01,0.00,22.1,20.6,00.0,31.1,23.8,07.4,0000.0,0002.86,0001.82,0001.56
2022-11-19 14:57:00,,0832.1,5.00,0.00,22.0,20.8,00.0,31.1,23.8,07.3,0000.0,0002.59,0001.80,0001.55
2022-11-19 14:58:00,,0832.1,4.99,0.00,22.1,22.0,00.0,31.0,24.0,07.3,0000.0,0002.79,0001.82,0001.54
2022-11-19 14:59:00,,0832.3,5.01,0.00,22.3,22.8,00.0,31.0,24.3,07.1,0000.0,0002.71,0001.77,0001.54
